Station SGNW3 - Sheboygan, WI Image indicating link to RSS feed of recent meteorological observations for station SGNW3


Conditions at SGNW3 as of
(11:00 pm CDT on 04/18/2024)
0400 GMT on 04/19/2024:
     

Click on the graph icon in the table below to see a time series plot of the last five days of that observation.

5-day plot - Wind Direction Wind Direction (WDIR): W ( 260 deg true )
5-day plot - Wind Speed Wind Speed (WSPD): 6 kts
5-day plot - Wind Gust Wind Gust (GST): 7 kts
5-day plot - Atmospheric Pressure Atmospheric Pressure (PRES):29.98 in
5-day plot - Pressure Tendency Pressure Tendency (PTDY):-0.03 in ( Falling )
5-day plot - Air Temperature Air Temperature (ATMP): 48.9 °F
5-day plot - Wind Chill Wind Chill (CHILL): 45.9 °F
5-day plot - Wind Speed at 10 Meters Wind Speed at 10 meters (WSPD10M): 6 kts
5-day plot - Wind Speed at 20 Meters Wind Speed at 20 meters (WSPD20M): 6 kts
5-day plot -  Wind Speed, Wind Gust and Atmospheric Pressure Combined plot of Wind Speed, Gust, and Air Pressure
Continuous Winds
TIME
(CDT)
5-day plot - Wind Direction WDIR 5-day plot - Wind Speed WSPD
11:00 pmWSW ( 255 deg ) 6 kts
10:50 pmWSW ( 244 deg ) 5 kts
10:40 pmWSW ( 248 deg ) 5 kts
10:30 pmWSW ( 250 deg ) 6 kts
10:20 pmWSW ( 254 deg ) 6 kts
10:10 pmWSW ( 256 deg ) 8 kts
 
Peak gust during the measurement hour
TIME
(CDT)
5-day plot - Gust Direction GDR 5-day plot - Gust Speed GST
10:00 pmW ( 260 deg ) 10 kts
Previous observations
TIME
(CDT)
5-day plot - Wind Direction
WDIR
 
5-day plot - Wind Speed
WSPD
kts
5-day plot - Wind Gust
GST
kts
5-day plot - Wave Height
WVHT
ft
5-day plot - Dominant Wave Period
DPD
sec
5-day plot - Average Wave Period
APD
sec
5-day plot - Mean Wave Direction
MWD
 
5-day plot - Atmospheric Pressure
PRES
in
5-day plot - Pressure Tendency
PTDY
in
5-day plot - Air Temperature
ATMP
°F
5-day plot - Water Temperature
WTMP
°F
5-day plot - Dew Point
DEWP
°F
5-day plot - Salinity
SAL
psu
5-day plot - Visibility
VIS
nmi
5-day plot - Tide (above MLLW)
TIDE
ft
2024-04-18 10:00 pmWSW 7 9----29.99-0.01 48.9-----
2024-04-18 09:00 pm S 5 6----30.00+0.00 47.5-----
2024-04-18 08:00 pm SW 7 8----30.01+0.02 48.4-----
2024-04-18 07:00 pmWSW 7 8----30.00+0.00 48.6-----
2024-04-18 06:00 pm SW 9 9----30.00+0.00 49.5-----
2024-04-18 05:00 pm S 10 10----29.99-0.02 48.6-----
2024-04-18 04:00 pm S 13 14----30.00-0.03 45.7-----
2024-04-18 03:00 pm S 12 13----30.01-0.05 48.4-----
2024-04-18 02:00 pm S 13 14----30.01-0.05 46.6-----
2024-04-18 01:00 pm S 10 11----30.03-0.01 46.9-----
2024-04-18 12:00 pm W 6 7----30.05+0.00 50.5-----
2024-04-18 11:00 amWSW 6 8----30.07+0.02 49.8-----
2024-04-18 10:00 am NW 4 5----30.04+0.02 48.9-----
2024-04-18 09:00 am W 10 12----30.06+0.06 48.7-----
2024-04-18 08:00 am W 7 9----30.05+0.08 48.4-----
2024-04-18 07:00 am W 6 8----30.02+0.08 47.3-----
2024-04-18 06:00 am W 4 5----29.99+0.08 48.9-----
2024-04-18 05:00 am NW 9 11----29.96+0.06 49.3-----
2024-04-18 04:00 am NW 10 12----29.94+0.04 49.5-----
2024-04-18 03:00 amWNW 10 12----29.92+0.04 48.6-----
2024-04-18 02:00 amWNW 10 11----29.90+0.04 50.0-----
2024-04-18 01:00 amWNW 11 13----29.90+0.07 50.2-----
2024-04-18 12:00 am W 15 18----29.88+0.09 50.7-----
2024-04-17 11:00 pmWNW 14 17----29.86+0.11 51.1-----